Tracking 18987 objects as of 26-Feb-2018
HD Live streaming from Space Station
objects crossing your sky now

FENGYUN 1C DEB

Track FENGYUN 1C DEB now!
10-day predictions


NORAD ID: 29827
Int'l Code: 1999-025DV
Perigee: 819.9 km
Apogee: 856.7 km
Inclination: 98.7 °
Period: 101.5 minutes
Semi major axis: 7209 km
RCS: 0.0148 m2 (small)
Launch date: May 10, 1999
Source: People's Republic of China (PRC)
Launch site: Taiyaun Space Center, China (TSC)

Note: This is SATELLITE DEBRIS
aabbcc
Your satellite tracking list
Your tracking list is empty




NASA's NSSDC Master Catalog

Two Line Element Set (TLE):
1 29827U 99025DV  18056.63059918 +.00000093 +00000-0 +66265-4 0  9995
2 29827 098.7088 091.6796 0025553 255.3975 229.0787 14.18284309574791
Source of the keplerian elements: AFSPC